Weather Roundup
Issued by NWS

Home | Current Version | Previous Version | Graphics & Text | Print | Product List | Glossary On
Versions: 1 2 3 4 5 6 7 8 9 10 11 12 13 14 15 16 17 18 19 20 21 22 23 24 25 26 27 28 29 30 31 32 33 34 35 36 37 38 39 40 41 42 43 44 45 46 47 48 49 50
000
NZUS93 KARX 242259
HRRWXR

CURRENT HOURLY OBSERVATIONS ACROSS
MUCH OF THE UPPER MISSISSIPPI VALLEY
NATIONAL WEATHER SERVICE LA CROSSE WI
600 PM CDT THU JUL 24 2014


...SOUTHEAST MINNESOTA...


CITY           SKY/WX    TMP DP  RH WIND       PRES   REMARKS
ROCHESTER      CLOUDY    73  59  61 S8        30.04F
ROCHESTER/MAYO FAIR      75  55  49 S9        30.01F
WINONA         CLOUDY    77  57  50 S3        30.02F
AUSTIN         CLOUDY    73  59  60 SW10G16   30.05F
ALBERT LEA     LGT RAIN  73  61  64 S15       29.98F
DODGE CENTER   CLOUDY    72  61  68 S12       29.99F
PRESTON        CLOUDY    73  64  72 SW7       30.07F
OWATONNA       CLOUDY    75  59  57 S20G29    29.87F
FARIBAULT      CLOUDY    79  55  44 SW9       29.96F
$$

...ELSEWHERE IN MINNESOTA...


CITY           SKY/WX    TMP DP  RH WIND       PRES   REMARKS
MINNEAPOLIS    CLOUDY    78  59  51 S38G47    29.75F
INTNL FALLS    PTSUNNY   74  55  51 SW5       29.93S
DULUTH         CLOUDY    72  57  59 SE7       29.94F
RED WING       CLOUDY    79  57  47 S10       29.93F
REDWOOD FALLS  PTSUNNY   73  62  68 S22       29.91F
MANKATO        CLOUDY    72  59  64 SW10G17   29.95R
WORTHINGTON    CLOUDY    64  57  77 SE13G22   29.96F
FAIRMONT       CLOUDY    66  61  82 SE9       29.95F
$$

...SOUTHWEST WISCONSIN...


CITY           SKY/WX    TMP DP  RH WIND       PRES   REMARKS
LA CROSSE      CLOUDY    80  58  46 SW7       30.03F
PRAIRIE DU CHI NOT AVBL
BOSCOBEL       PTSUNNY   78  57  48 S6        30.06F
LONE ROCK      NOT AVBL
PLATTEVILLE    PTSUNNY   75  56  51 SW9       30.09S
FORT MC COY    PTSUNNY   76  53  43 W5        30.07S
VIROQUA        FAIR      74  57  53 SW5       30.08F
WIS DELLS      MOSUNNY   78  49  36 SW7       30.07S
$$

...ELSEWHERE IN WISCONSIN...


CITY           SKY/WX    TMP DP  RH WIND       PRES   REMARKS
MILWAUKEE      MOSUNNY   68  44  42 SE10      30.09F
MADISON        PTSUNNY   77  54  44 VRB3      30.07S
GREEN BAY      PTSUNNY   76  52  43 VRB7      30.05F
EAU CLAIRE     NOT AVBL
BLACK RVR FLS  FAIR      77  51  40 SW5       30.03F
MEDFORD        PTSUNNY   72  55  54 SW3       30.06F
WAUSAU         MOSUNNY   74  50  42 SW6       30.03F
WIS RAPIDS     MOSUNNY   77  51  40 W5        30.05F
MARSHFIELD     PTSUNNY   74  53  48 CALM      30.04F
RICE LAKE      CLOUDY    75  54  48 SE9       29.98F
$$

...NORTHEAST IOWA...


CITY           SKY/WX    TMP DP  RH WIND       PRES   REMARKS
WATERLOO       CLOUDY    75  58  55 W7        30.08R
DUBUQUE        MOSUNNY   73  59  61 SW8       30.08F
DECORAH        CLOUDY    75  61  60 CALM      30.06S
MASON CITY     LGT RAIN  72  62  71 SW10      30.12R
CHARLES CITY   CLOUDY    75  59  57 W12       30.11R
OELWEIN        CLOUDY    75  59  57 S7        30.08S
$$

...ELSEWHERE IN IOWA...


CITY           SKY/WX    TMP DP  RH WIND       PRES   REMARKS
DES MOINES     LGT RAIN  74  63  68 NE7       30.06R
IOWA CITY      PTSUNNY   76  59  55 S9        30.09F
FORT DODGE     CLOUDY    64  63  94 CALM      30.14R
MARSHALLTOWN   CLOUDY    72  62  71 W6        30.09R
CEDAR RAPIDS   PTSUNNY   74  60  61 S9        30.06F
$$

...NORTHERN ILLINOIS...


CITY           SKY/WX    TMP DP  RH WIND       PRES   REMARKS
CHICAGO-OHARE  MOSUNNY   74  43  32 E7        30.09S
DUPAGE         SUNNY     76  46  34 CALM      30.07F
CHICAGO-MIDWAY MOSUNNY   73  46  38 E6        30.09S
MOLINE         PTSUNNY   76  55  48 S3        30.07F
ROCKFORD       PTSUNNY   74  53  48 SW7       30.09F
STERLING       MOSUNNY   75  55  50 CALM      30.08F
PEORIA         MOSUNNY   79  53  40 VRB3      30.07F
$$

NOTE: "FAIR" INDICATES FEW OR NO CLOUDS BELOW 12,000 FEET WITH NO
SIGNIFICANT WEATHER AND/OR OBSTRUCTIONS TO VISIBILITY. WIND
SPEEDS ARE IN MILES-PER-HOUR.



USA.gov is the U.S. government's official web portal to all federal, state and local government web resources and services.